Prerov, Czech Republic

7:45 PM CET on March 24, 2017 (GMT +0100)
Prerov

Weather History for LKPO - October, 2012

Change the Weather History Date:

Tuesday, October 2, 2012

  Actual Average Record
Temperature  
Mean Temperature 58 °F -  
Max Temperature 64 °F - - ()
Min Temperature 51 °F - - ()
Degree Days  
Heating Degree Days 6    
Growing Degree Days 8 (Base 50)    
Moisture  
Dew Point 52 °F    
Average Humidity 80    
Maximum Humidity 94    
Minimum Humidity 64    
Precipitation  
Precipitation 0.00 in - - ()
Sea Level Pressure  
Sea Level Pressure 30.06 in    
Wind  
Wind Speed 3 mph ()    
Max Wind Speed 7 mph    
Max Gust Speed -    
Visibility 6.2 miles    
Events Rain    
T = Trace of Precipitation, MM = Missing Value Source: Averaged Metar Reports

Daily Weather History Graph

Daily Weather History Graph

Search for Another Location

Airport or City:

Trip Planner

Search our weather history database for the weather conditions in past years. The results will help you decide how hot, cold, wet, or windy it might be!

Date:

Astronomy

Oct. 02, 2012 Rise Set
Actual Time 6:52 AM CEST 6:26 PM CEST
Civil Twilight 6:20 AM CEST 6:58 PM CEST
Nautical Twilight 5:43 AM CEST 7:35 PM CEST
Astronomical Twilight 5:05 AM CEST 8:12 PM CEST
Moon 7:09 PM CEST (10/2) 9:19 AM CEST (10/2)
Length of Visible Light 12h 37m
Length of Day
11h 34m
Waning Gibbous, 95% of the Moon is Illuminated
Oct 2
Waning Gibbous
Oct 8
Last Quarter
Oct 15
New
Oct 22
First Quarter
Oct 29
Full

Hourly Weather History & Observations

Time (CEST) Temp. Dew Point Humidity Pressure Visibility Wind Dir Wind Speed Gust Speed Precip Events Conditions
12:00 AM 59.0 °F 53.6 °F 82% 30.06 in 6.2 mi NW 5.8 mph - N/A   Mostly Cloudy
1:00 AM 57.2 °F 53.6 °F 88% 30.06 in 6.2 mi NW 6.9 mph - N/A   Overcast
2:00 AM 57.2 °F 51.8 °F 82% 30.06 in 6.2 mi NW 4.6 mph - N/A   Overcast
3:00 AM 57.2 °F 51.8 °F 82% 30.06 in 6.2 mi NW 3.5 mph - N/A   Overcast
4:00 AM 57.2 °F 51.8 °F 82% 30.06 in 6.2 mi Variable 2.3 mph - N/A   Overcast
5:00 AM 57.2 °F 51.8 °F 82% 30.06 in 6.2 mi Calm Calm - N/A   Overcast
6:00 AM 57.2 °F 51.8 °F 82% 30.06 in 6.2 mi Variable 1.2 mph - N/A   Overcast
7:00 AM 55.4 °F 53.6 °F 94% 30.06 in 6.2 mi NNW 2.3 mph - N/A   Mostly Cloudy
8:00 AM 55.4 °F 51.8 °F 88% 30.06 in 6.2 mi Calm Calm - N/A   Mostly Cloudy
9:00 AM 57.2 °F 51.8 °F 82% 30.09 in 6.2 mi Calm Calm - N/A   Mostly Cloudy
10:00 AM 59.0 °F 50.0 °F 72% 30.09 in 6.2 mi NW 4.6 mph - N/A   Mostly Cloudy
11:00 AM 60.8 °F 51.8 °F 72% 30.06 in - NW 6.9 mph - N/A   Clear
12:00 PM 62.6 °F 51.8 °F 68% 30.06 in - WNW 5.8 mph - N/A   Clear
1:00 PM 62.6 °F 51.8 °F 68% 30.06 in 6.2 mi WNW 3.5 mph - N/A   Mostly Cloudy
2:00 PM 64.4 °F 51.8 °F 64% 30.06 in 6.2 mi NW 5.8 mph - N/A   Mostly Cloudy
3:00 PM 62.6 °F 51.8 °F 68% 30.06 in 6.2 mi NNW 5.8 mph - N/A   Overcast
4:00 PM 62.6 °F 51.8 °F 68% 30.06 in 6.2 mi NNW 6.9 mph - N/A   Overcast
5:00 PM 60.8 °F 51.8 °F 72% 30.06 in 6.2 mi NNW 5.8 mph - N/A   Overcast
6:00 PM 59.0 °F 53.6 °F 82% 30.06 in 6.2 mi NW 4.6 mph - N/A Rain Light Rain
7:00 PM 57.2 °F 53.6 °F 88% 30.06 in 6.2 mi Variable 1.2 mph - N/A Rain Light Rain
8:00 PM 57.2 °F 53.6 °F 88% 30.06 in - Calm Calm - N/A   Clear
9:00 PM 57.2 °F 53.6 °F 88% 30.06 in - Calm Calm - N/A   Clear
10:00 PM 53.6 °F 50.0 °F 88% 30.06 in - West 2.3 mph - N/A   Clear
11:00 PM 51.8 °F 50.0 °F 94% 30.06 in - Calm Calm - N/A   Clear